SCP
0 0 0 0 0 0 0 0 0 0 0 0 0 0 0 0 0 0 0 0 0 0 0 0 0 0 0 -0 -0 -0 0 0
0 0 0 0 0 0 0 0 0 0 0 0 0 0 0 0 0 0 0 0 0 0 0 0 0 0 0 -0 -0 -0 0 0
-0 0 0 0 0 0 0 0 0 0 0 0 0 0 0 0 0 0 0 0 0 0 0 0 0 0 0 0 0 0 0 0
0 0 0 0 0 0 0 0 0 0 0 0 0 0 0 0 0 0 0 0 0 0 0 0 0 0 0 0 0 0 0 0
0 0 0 0 0 0 0 0 0 0 0 0 0 0 0 0 0 0 0 0 0 0 0 0 0 0 0 0 0 0 0 0
0 0 0 0 0 0 0 0 0 0 0 0 0 0 0 0 0 0 0 0 0 0 0 0 0 0 0 0 0 0 0 0
0 0 0 0 0 0 0 0 0 0 0 0 0 0 0 0 0 0 0 0 0 0 0 0 0 0 0 0 0 0 0 0
0 0 0 0 0 0 0 0 0 0 0 0 0 0 0 0 0 0 0 0 0 0 0 0 0 0 0 0 0 0 0 0
0 0 0 0 0 0 0 0 0 0 0 0 0 0 0 0 0 0 0 0 0 0 0 0 0 0 0 0 0 0 0 0
0 0 0 0 0 0 0 0 0 0 0 0 0 0 0 0 0 0 0 0 -0 -0 0 0 0 0 0 0 0 0 0 0
0 0 0 0 0 0 0 0 0 0 0 0 0 0 0 0 0 0 0 0 0 0 0 0 0 0 0 0 0 0 0 0
0 0 0 0 0 0 0 0 0 0 0 0 0 0 0 0 0 0 0 0 0 0 0 0 0 0 0 0 0 0 0 0
0 0 0 0 0 0 0 0 0 0 0 0 0 0 0 0 0 0 0 0 0 0 0 0 0 0 0 0 0 0 0 0
0 0 0 0 0 0 0 0 0 0 0 0 0 0 0 0 0 0 0 0 0 0 0 0 0 0 0 0 0 0 0 0
0 0 0 0 0 0 0 0 0 0 0 0 0 0 0 0 0 0 0 0 0 0 0 0 0 0 0 0 0 0 0 0
0 0 0 0 0 0 0 0 0 0 0 0 0 0 0 0 0 0 0 0 0 0 0 0 0 0 0 0 0 0 0 0
0 0 0 0 0 0 0 0 0 0 0 0 0 0 0 0 0 0 0 0 0 0 0 0 0 0 0 0 0 0 0 0
0 0 0 0 0 0 0 0 0 0 0 0 0 0 0 0 0 0 0 0 0 0 0 0 0 0 0 0 0 0 0 0
0 0 0 0 0 0 0 0 0 0 0 0 0 0 0 0 0 0 0 0 0 0 0 0 0 0 0 0 0 0 0 0
0 0 0 0 0 0 0 0 0 0 0 0 0 -0 0 0 0 0 0 0 0 0 0 0 0 0 0 0 0 0 0 0
Wind_Speed_500mb
71 77 85 84 75 68 61 52 38 29 20 18 19 21 23 19 13 9 6 7 2 10 14 9 11 17 12 4 5 8 15 21
75 78 86 87 80 74 65 53 42 33 25 22 21 22 19 17 13 9 6 6 5 6 12 7 5 10 11 8 7 10 16 19
79 83 87 88 84 76 65 56 45 37 29 23 21 22 19 19 14 9 10 9 7 7 11 12 7 5 5 7 9 14 19 19
79 80 83 87 84 79 72 60 51 40 31 21 24 25 22 21 11 13 11 11 12 14 15 15 9 8 9 12 16 21 24 31
81 83 82 85 84 76 75 65 46 42 32 25 27 25 25 23 18 12 14 15 17 13 16 12 10 12 16 22 28 37 44 45
77 76 75 78 78 72 67 64 51 42 35 28 27 28 27 23 21 15 15 15 19 13 10 9 13 17 23 30 35 42 46 42
70 67 66 71 75 69 71 62 53 43 37 28 27 30 28 21 20 15 11 14 14 8 7 13 22 27 31 32 32 34 33 29
60 59 58 68 70 65 70 63 52 44 35 26 25 27 24 17 14 13 13 11 11 10 12 19 27 34 30 28 31 34 31 33
52 49 55 64 63 64 71 59 49 36 31 26 29 27 16 13 12 12 9 8 9 13 20 24 26 31 32 35 36 34 33 36
48 50 53 52 54 68 66 54 40 34 36 31 32 26 18 16 11 9 7 8 14 20 26 28 28 38 41 38 35 32 34 35
50 48 47 49 59 65 57 47 42 39 39 34 29 22 15 20 13 10 10 14 20 24 31 34 37 40 37 32 27 30 32 29
51 47 51 61 63 55 45 44 38 38 37 37 32 20 19 18 13 8 11 14 23 26 23 29 36 34 26 18 24 27 24 22
50 54 60 65 61 54 44 34 37 40 37 34 28 22 22 12 6 2 11 19 19 18 24 27 31 26 23 20 21 26 23 23
57 63 66 65 60 50 38 31 38 39 41 35 29 26 15 9 3 3 10 12 15 20 23 25 22 22 20 22 24 22 25 28
65 68 62 58 50 40 33 41 39 38 39 31 28 25 13 6 1 6 11 12 17 18 19 19 22 19 21 21 20 25 31 28
67 59 53 48 42 35 41 45 43 36 38 28 30 17 11 10 1 7 11 11 12 13 17 17 19 14 19 22 25 29 24 23
57 52 47 44 39 38 41 45 42 41 34 36 22 12 9 7 1 5 2 7 10 12 14 13 10 16 24 26 28 25 28 26
56 54 49 42 36 35 47 48 45 44 34 23 16 7 4 6 5 3 2 6 10 9 7 5 9 18 26 23 20 22 26 27
43 44 39 33 37 52 52 49 49 36 26 20 17 3 7 11 7 6 4 8 8 5 4 5 13 22 22 16 18 25 26 28
44 39 31 41 51 57 53 52 43 34 23 16 13 7 17 11 7 4 8 8 5 5 5 11 17 22 21 19 22 26 26 33
Wind_Direction_500mb
202 202 203 203 202 199 198 198 194 199 204 196 194 190 178 169 156 169 224 239 340 26 22 2 13 33 52 87 2 343 338 335
202 203 203 206 206 201 200 197 197 203 202 198 197 189 181 175 182 194 214 257 270 321 358 343 340 23 36 25 356 342 340 343
205 205 202 205 207 203 203 199 200 203 203 201 198 189 183 180 198 217 221 262 277 298 326 344 287 319 357 351 335 324 322 322
207 208 205 205 208 205 202 199 201 200 203 202 196 196 193 185 190 225 247 260 276 286 309 319 269 277 299 312 314 313 311 315
211 213 208 208 209 207 201 198 199 201 201 203 203 200 199 204 214 238 253 269 301 283 285 285 263 283 296 306 308 304 307 305
215 215 210 208 211 207 200 198 197 199 199 205 205 205 203 210 226 242 260 267 292 270 270 264 287 304 310 309 308 303 305 312
219 216 213 205 211 203 195 193 196 197 199 204 207 206 207 219 220 248 269 278 277 226 253 299 312 313 315 314 309 317 316 320
214 211 206 207 206 198 190 193 193 196 199 204 203 202 201 222 236 243 267 269 219 252 293 312 320 317 317 312 309 312 308 315
210 207 206 205 202 190 191 192 194 192 193 194 187 186 204 236 228 244 234 208 235 285 305 315 324 326 317 309 305 302 308 321
203 196 198 199 194 187 189 190 184 184 189 190 190 197 200 200 199 184 205 259 286 304 316 318 310 315 309 304 296 300 317 326
194 191 189 185 184 186 185 181 180 183 186 185 186 187 199 188 207 213 246 279 304 315 314 316 320 314 306 300 297 313 327 334
184 180 180 175 176 178 182 177 185 185 182 178 183 195 189 192 202 240 273 312 316 322 334 333 333 335 331 319 318 335 340 337
176 174 170 166 165 169 176 183 183 178 179 179 183 172 167 187 215 276 321 327 326 328 333 332 338 348 353 342 346 343 336 336
169 167 163 162 165 172 178 179 176 174 177 180 179 180 189 181 202 358 326 332 329 321 322 335 350 354 0 351 341 339 337 341
165 162 164 164 168 174 178 175 174 176 181 178 183 183 188 213 227 349 320 328 317 316 328 348 0 357 350 345 341 343 341 345
160 160 163 167 168 169 173 177 176 180 178 184 176 186 184 176 43 321 327 316 307 308 332 355 354 353 350 345 344 336 355 6
157 162 166 167 162 164 178 178 176 172 177 170 168 163 172 183 80 308 213 335 303 303 338 350 358 354 343 338 345 13 13 5
164 169 168 168 167 176 168 166 166 164 164 171 173 179 170 187 227 244 16 307 273 312 334 355 354 342 336 347 4 6 1 4
169 169 168 172 171 164 163 164 164 158 165 176 184 210 190 199 252 185 314 301 290 318 307 335 339 344 348 350 355 356 354 353
163 165 165 163 162 161 165 167 164 164 161 158 176 164 187 218 193 206 321 295 293 331 356 356 353 2 8 358 351 352 352 349
Wind_Speed_850mb
71 77 85 84 75 68 61 52 38 29 20 18 19 21 23 19 13 9 6 7 2 10 14 9 11 17 12 4 5 8 15 21
75 78 86 87 80 74 65 53 42 33 25 22 21 22 19 17 13 9 6 6 5 6 12 7 5 10 11 8 7 10 16 19
79 83 87 88 84 76 65 56 45 37 29 23 21 22 19 19 14 9 10 9 7 7 11 12 7 5 5 7 9 14 19 19
79 80 83 87 84 79 72 60 51 40 31 21 24 25 22 21 11 13 11 11 12 14 15 15 9 8 9 12 16 21 24 31
81 83 82 85 84 76 75 65 46 42 32 25 27 25 25 23 18 12 14 15 17 13 16 12 10 12 16 22 28 37 44 45
77 76 75 78 78 72 67 64 51 42 35 28 27 28 27 23 21 15 15 15 19 13 10 9 13 17 23 30 35 42 46 42
70 67 66 71 75 69 71 62 53 43 37 28 27 30 28 21 20 15 11 14 14 8 7 13 22 27 31 32 32 34 33 29
60 59 58 68 70 65 70 63 52 44 35 26 25 27 24 17 14 13 13 11 11 10 12 19 27 34 30 28 31 34 31 33
52 49 55 64 63 64 71 59 49 36 31 26 29 27 16 13 12 12 9 8 9 13 20 24 26 31 32 35 36 34 33 36
48 50 53 52 54 68 66 54 40 34 36 31 32 26 18 16 11 9 7 8 14 20 26 28 28 38 41 38 35 32 34 35
50 48 47 49 59 65 57 47 42 39 39 34 29 22 15 20 13 10 10 14 20 24 31 34 37 40 37 32 27 30 32 29
51 47 51 61 63 55 45 44 38 38 37 37 32 20 19 18 13 8 11 14 23 26 23 29 36 34 26 18 24 27 24 22
50 54 60 65 61 54 44 34 37 40 37 34 28 22 22 12 6 2 11 19 19 18 24 27 31 26 23 20 21 26 23 23
57 63 66 65 60 50 38 31 38 39 41 35 29 26 15 9 3 3 10 12 15 20 23 25 22 22 20 22 24 22 25 28
65 68 62 58 50 40 33 41 39 38 39 31 28 25 13 6 1 6 11 12 17 18 19 19 22 19 21 21 20 25 31 28
67 59 53 48 42 35 41 45 43 36 38 28 30 17 11 10 1 7 11 11 12 13 17 17 19 14 19 22 25 29 24 23
57 52 47 44 39 38 41 45 42 41 34 36 22 12 9 7 1 5 2 7 10 12 14 13 10 16 24 26 28 25 28 26
56 54 49 42 36 35 47 48 45 44 34 23 16 7 4 6 5 3 2 6 10 9 7 5 9 18 26 23 20 22 26 27
43 44 39 33 37 52 52 49 49 36 26 20 17 3 7 11 7 6 4 8 8 5 4 5 13 22 22 16 18 25 26 28
44 39 31 41 51 57 53 52 43 34 23 16 13 7 17 11 7 4 8 8 5 5 5 11 17 22 21 19 22 26 26 33
Wind_Direction_850mb
202 202 203 203 202 199 198 198 194 199 204 196 194 190 178 169 156 169 224 239 340 26 22 2 13 33 52 87 2 343 338 335
202 203 203 206 206 201 200 197 197 203 202 198 197 189 181 175 182 194 214 257 270 321 358 343 340 23 36 25 356 342 340 343
205 205 202 205 207 203 203 199 200 203 203 201 198 189 183 180 198 217 221 262 277 298 326 344 287 319 357 351 335 324 322 322
207 208 205 205 208 205 202 199 201 200 203 202 196 196 193 185 190 225 247 260 276 286 309 319 269 277 299 312 314 313 311 315
211 213 208 208 209 207 201 198 199 201 201 203 203 200 199 204 214 238 253 269 301 283 285 285 263 283 296 306 308 304 307 305
215 215 210 208 211 207 200 198 197 199 199 205 205 205 203 210 226 242 260 267 292 270 270 264 287 304 310 309 308 303 305 312
219 216 213 205 211 203 195 193 196 197 199 204 207 206 207 219 220 248 269 278 277 226 253 299 312 313 315 314 309 317 316 320
214 211 206 207 206 198 190 193 193 196 199 204 203 202 201 222 236 243 267 269 219 252 293 312 320 317 317 312 309 312 308 315
210 207 206 205 202 190 191 192 194 192 193 194 187 186 204 236 228 244 234 208 235 285 305 315 324 326 317 309 305 302 308 321
203 196 198 199 194 187 189 190 184 184 189 190 190 197 200 200 199 184 205 259 286 304 316 318 310 315 309 304 296 300 317 326
194 191 189 185 184 186 185 181 180 183 186 185 186 187 199 188 207 213 246 279 304 315 314 316 320 314 306 300 297 313 327 334
184 180 180 175 176 178 182 177 185 185 182 178 183 195 189 192 202 240 273 312 316 322 334 333 333 335 331 319 318 335 340 337
176 174 170 166 165 169 176 183 183 178 179 179 183 172 167 187 215 276 321 327 326 328 333 332 338 348 353 342 346 343 336 336
169 167 163 162 165 172 178 179 176 174 177 180 179 180 189 181 202 358 326 332 329 321 322 335 350 354 0 351 341 339 337 341
165 162 164 164 168 174 178 175 174 176 181 178 183 183 188 213 227 349 320 328 317 316 328 348 0 357 350 345 341 343 341 345
160 160 163 167 168 169 173 177 176 180 178 184 176 186 184 176 43 321 327 316 307 308 332 355 354 353 350 345 344 336 355 6
157 162 166 167 162 164 178 178 176 172 177 170 168 163 172 183 80 308 213 335 303 303 338 350 358 354 343 338 345 13 13 5
164 169 168 168 167 176 168 166 166 164 164 171 173 179 170 187 227 244 16 307 273 312 334 355 354 342 336 347 4 6 1 4
169 169 168 172 171 164 163 164 164 158 165 176 184 210 190 199 252 185 314 301 290 318 307 335 339 344 348 350 355 356 354 353
163 165 165 163 162 161 165 167 164 164 161 158 176 164 187 218 193 206 321 295 293 331 356 356 353 2 8 358 351 352 352 349